Погода в Пересыпкине 1-ом

Россия / Тамбовская область     52°54′39″N   42°54′07″E
темп.,
°C
ветер,
м/с
пор.,
м/с
влажн.,
%
обл.,
%
осадки,
мм/ч
давл.,
гПа
погр.,
м
8 мая, сб
сб800:00+5св1189100 0.0 101710
03:00+5всв11885 0.0 101810
06:00+6всв2486100 0.0 1017112
09:00+11вюв346588 0.0 1016600
12:00+14юв33518 0.0 10141143
15:00+16ю564857 0.0 10121239
18:00+14ююв51165100 0.0 1010380
21:00+12юв51475100 0.4 1009468
9 мая, вс
вс900:00+13ю71570100 0.1 1007478
03:00+11ю4994100 0.1 1008302
06:00+11ююз4895100 0.0 1008400
09:00+8з5894100 4.6 1010411
12:00+7з5890100 3.8 1011660
15:00+6зсз5792100 6.8 1014639
18:00+6сз6991100 0.1 1016683
21:00+6ссз71288100 0.1 1018774
10 мая, пн
пн1000:00+5с61388100 0.0 1019773
03:00+5с71491100 0.0 1020722
06:00+5с71589100 0.0 1022764
09:00+6ссв81680100 0.0 1023845
12:00+7ссв91779100 0.1 1023722
15:00+8св91674100 0.2 1024758
18:00+10ссв91775100 0.0 1024686
21:00+9ссв91876100 0.0 1024546
11 мая, вт
вт1100:00+8св81977100 0.0 1024522
03:00+8св61479100 0.0 1024520
06:00+8св61583100 0.0 1025544
09:00+10всв61385100 0.1 1025476
12:00+12св51086100 0.2 1025440
15:00+17всв597292 0.2 1024816
18:00+16всв61380100 1.2 1024442
21:00+13всв0095100 6.7 102514
12 мая, ср
ср1200:00+12всв51197100 2.1 1025424
03:00+12всв4898100 5.6 1024278
06:00+12всв61695100 0.8 1024550
09:00+16в71378100 1.2 1023706
12:00+19вюв8136676 0.0 10231256
15:00+19в7127169 0.0 10221058
18:00+17вюв61376100 0.4 1022589
21:00+16в5127899 0.5 1022336